Location: Potomac Astrometric Observatory
(39.0475°N, 77.2064°W)
Time: 20:23:33
(UTC-04:00)

Envisat - Visible Passes

Search period start: 21 March 2019 00:00
Search period end: 31 March 2019 00:00
Orbit: 764 x 766 km, 98.2° (Epoch: 21 March)

Date Brightness Start Highest point End Pass type
(mag) Time Alt. Az. Time Alt. Az. Time Alt. Az.
21 Mar 4.1 20:15:36 10° S 20:20:28 47° W 20:25:22 10° NNW visible
22 Mar 3.0 19:38:38 10° SSE 19:43:42 77° ENE 19:48:47 10° N visible
22 Mar 6.2 21:21:49 10° WSW 21:23:15 11° W 21:24:41 10° WNW visible
23 Mar 5.2 20:41:55 10° SSW 20:46:08 26° W 20:50:23 10° NW visible
24 Mar 3.7 20:04:14 10° S 20:09:14 60° W 20:14:16 10° NNW visible
25 Mar 5.9 21:09:08 10° SW 21:11:54 15° W 21:14:41 10° WNW visible
26 Mar 4.8 20:30:18 10° SSW 20:34:51 33° W 20:39:26 10° NNW visible
27 Mar 3.2 19:52:56 10° S 19:58:00 77° WSW 20:03:06 10° NNW visible
28 Mar 5.7 20:57:03 10° SW 21:00:35 19° W 21:04:07 10° NW visible
29 Mar 4.4 20:18:48 10° S 20:23:35 42° W 20:28:24 10° NNW visible
